N0JVW-13 Weather Reports


Display with metric or nautical units.
time (UTC)temp
F
wind
direction
speed
MPH
gust
MPH
rain 1hr
in
rain 24hr
in
rain mn
in
humidity
%
barometer
mb
20260506124054 46 345 0.0 0.0 0.00 0.21 0.01 1 1017.6
20260506123529 46 345 0.0 0.0 0.00 0.21 0.01 1 1017.5
20260506123006 46 345 0.0 0.0 0.00 0.21 0.01 1 1017.3
20260506122550 46 345 0.0 0.0 0.00 0.21 0.01 1 1017.1
20260506122024 46 345 0.0 0.0 0.00 0.21 0.01 1 1017.0
20260506121605 45 345 0.0 0.0 0.00 0.21 0.01 1 1016.8
20260506121040 45 345 0.0 0.0 0.00 0.21 0.01 1 1016.8
20260506120517 45 345 0.0 0.0 0.00 0.21 0.01 1 1016.6
20260506120107 45 345 0.0 0.0 0.00 0.21 0.01 1 1016.7
20260506115533 45 345 0.0 0.0 0.00 0.21 0.01 1 1016.6
20260506115012 45 345 0.0 0.0 0.00 0.21 0.01 1 1016.5
20260506114551 45 345 0.0 0.0 0.00 0.21 0.01 1 1016.3
20260506114027 45 345 0.0 0.0 0.00 0.21 0.01 1 1016.2
20260506113504 45 345 0.0 0.0 0.00 0.21 0.01 1 1016.3
20260506113052 45 345 0.0 0.0 0.00 0.21 0.01 1 1016.5
20260506112520 45 345 0.0 0.0 0.00 0.21 0.01 1 1016.6
20260506112101 45 345 0.0 0.0 0.00 0.21 0.01 1 1016.4
20260506111536 45 345 0.0 0.0 0.00 0.21 0.01 1 1016.8
20260506111012 45 345 0.0 0.0 0.00 0.21 0.01 1 1016.9
20260506110554 45 345 0.0 0.0 0.00 0.21 0.01 1 1016.8
20260506110031 45 345 0.0 0.0 0.00 0.21 0.01 1 1016.8
20260506105506 45 345 0.0 0.0 0.00 0.21 0.01 1 1016.9
20260506105050 45 345 0.0 0.0 0.00 0.21 0.01 1 1017.1
20260506104527 45 345 0.0 0.0 0.00 0.21 0.01 1 1016.8
20260506104104 45 345 0.0 0.0 0.00 0.21 0.01 1 1016.7
20260506103540 45 345 0.0 0.0 0.00 0.21 0.01 1 1017.2
20260506103015 45 345 0.0 1.0 0.00 0.21 0.01 1 1016.8
20260506102559 45 345 0.0 1.0 0.00 0.21 0.01 1 1016.8
20260506102032 45 345 0.0 0.0 0.00 0.21 0.01 1 1016.4
20260506101520 45 345 0.0 0.0 0.00 0.21 0.01 1 1016.0
20260506101049 45 345 0.0 0.0 0.00 0.21 0.01 1 1015.7
20260506100525 45 345 0.0 0.0 0.00 0.21 0.01 1 1015.5
20260506100001 45 345 0.0 0.0 0.00 0.21 0.01 1 1015.3
20260506095542 45 345 0.0 0.0 0.00 0.21 0.01 1 1015.4
20260506095022 45 345 0.0 0.0 0.00 0.21 0.01 1 1015.4
20260506094559 45 345 0.0 0.0 0.00 0.21 0.01 1 1015.4
20260506094033 45 345 0.0 0.0 0.00 0.21 0.01 1 1015.3
20260506093508 45 345 0.0 0.0 0.00 0.21 0.01 1 1015.2
20260506093051 45 345 0.0 0.0 0.00 0.21 0.01 1 1015.3
20260506092526 45 345 0.0 0.0 0.00 0.21 0.01 1 1015.5
20260506092001 45 345 0.0 0.0 0.00 0.21 0.01 1 1015.4
20260506091540 45 345 0.0 0.0 0.00 0.21 0.01 1 1015.5
20260506091013 45 345 0.0 0.0 0.00 0.31 0.01 1 1015.6
20260506090552 45 345 0.0 0.0 0.00 0.31 0.01 1 1015.8
20260506090028 45 345 0.0 0.0 0.00 0.31 0.01 1 1015.7
20260506085504 45 345 0.0 0.0 0.00 0.31 0.01 1 1015.6
20260506085043 45 345 0.0 0.0 0.00 0.31 0.01 1 1015.6
20260506084520 45 345 0.0 0.0 0.00 0.31 0.01 1 1015.6
20260506084100 45 345 0.0 0.0 0.00 0.31 0.01 1 1015.6
20260506083537 45 345 0.0 0.0 0.00 0.31 0.01 1 1015.5
20260506083012 45 345 0.0 0.0 0.00 0.31 0.01 1 1015.2
20260506082553 45 345 0.0 0.0 0.00 0.31 0.01 1 1015.3
20260506082033 45 345 0.0 0.0 0.00 0.31 0.01 1 1015.2
20260506081506 45 345 0.0 0.0 0.00 0.31 0.01 1 1014.9
20260506081046 45 345 0.0 0.0 0.00 0.40 0.01 1 1014.5
20260506080521 45 345 0.0 0.0 0.00 0.40 0.01 1 1014.4
20260506073507 45 345 0.0 0.0 0.01 0.40 0.01 1 1014.4
20260506073050 45 345 0.0 0.0 0.01 0.40 0.01 1 1014.6
20260506072523 45 345 0.0 0.0 0.01 0.40 0.01 1 1014.6
20260506072103 45 345 0.0 2.0 0.01 0.40 0.01 1 1014.7
20260506071539 45 345 0.0 2.0 0.01 0.40 0.01 1 1014.9
20260506071018 45 3 0.0 3.0 0.01 0.45 0.01 1 1015.4
20260506070556 45 3 0.0 3.0 0.01 0.45 0.01 1 1015.5
20260506062036 45 28 0.0 1.0 0.00 0.44 0.00 1 1015.8
20260506061512 45 321 0.0 2.0 0.00 0.44 0.00 1 1015.9
20260506061054 45 321 0.0 3.0 0.00 0.54 0.00 1 1015.8
20260506060529 45 21 0.0 3.0 0.00 0.54 0.00 1 1015.6
20260506051028 46 305 1.0 5.0 0.00 0.54 0.54 1 1015.0
20260506050503 47 25 1.0 5.0 0.00 0.54 0.54 1 1014.8
20260506045105 48 49 0.0 0.0 0.00 0.54 0.54 1 1014.2
20260506044627 48 63 0.0 0.0 0.00 0.54 0.54 1 1014.1
20260506044016 48 63 0.0 0.0 0.00 0.54 0.54 1 1014.3
20260506043557 48 63 0.0 0.0 0.00 0.54 0.54 1 1014.3
20260506043033 48 63 0.0 0.0 0.00 0.54 0.54 1 1014.1
20260506042510 48 63 0.0 0.0 0.00 0.54 0.54 1 1014.0
20260506042047 48 63 0.0 0.0 0.00 0.54 0.54 1 1013.7
20260506041524 48 63 0.0 0.0 0.00 0.54 0.54 1 1013.7
20260506041104 48 63 0.0 0.0 0.00 0.54 0.54 1 1013.8
20260506040543 48 63 0.0 0.0 0.00 0.54 0.54 1 1014.0
20260506040016 48 63 0.0 0.0 0.00 0.54 0.54 1 1013.8
20260506035556 48 63 0.0 0.0 0.00 0.54 0.54 1 1013.8
20260506035033 48 63 0.0 0.0 0.00 0.54 0.54 1 1013.8
20260506034518 48 63 0.0 0.0 0.00 0.54 0.54 1 1013.6
20260506034049 48 63 0.0 0.0 0.00 0.54 0.54 1 1013.6
20260506033523 48 7 0.0 0.0 0.00 0.54 0.54 1 1013.4
20260506033107 48 7 0.0 0.0 0.00 0.54 0.54 1 1013.5
20260506032540 48 7 0.0 0.0 0.00 0.54 0.54 1 1013.4
20260506032016 48 7 0.0 0.0 0.00 0.54 0.54 1 1013.4
20260506031603 48 7 0.0 0.0 0.00 0.54 0.54 1 1013.2
20260506031032 48 7 0.0 0.0 0.00 0.54 0.54 1 1013.2
20260506030507 48 7 0.0 0.0 0.00 0.54 0.54 1 1013.2
20260506030047 48 7 0.0 0.0 0.00 0.54 0.54 1 1013.0
20260506025523 48 7 0.0 0.0 0.00 0.54 0.54 1 1012.8
20260506025104 48 7 0.0 0.0 0.00 0.54 0.54 1 1012.8
20260506024539 48 7 0.0 0.0 0.00 0.54 0.54 1 1012.7
20260506024015 48 7 0.0 0.0 0.00 0.54 0.54 1 1012.7
20260506023555 48 7 0.0 0.0 0.00 0.54 0.54 1 1012.6
20260506023037 48 7 0.0 0.0 0.00 0.54 0.54 1 1012.5
20260506022507 48 7 0.0 0.0 0.00 0.54 0.54 1 1012.4
20260506022048 48 7 0.0 0.0 0.00 0.54 0.54 1 1012.4
20260506021522 48 7 0.0 0.0 0.00 0.54 0.54 1 1012.4
20260506021104 48 7 0.0 0.0 0.00 0.54 0.54 1 1012.3
20260506020541 48 7 0.0 0.0 0.00 0.54 0.54 1 1012.0
20260506020013 48 7 0.0 0.0 0.00 0.54 0.54 1 1012.0
20260506015555 48 7 0.0 0.0 0.00 0.54 0.54 1 1012.0
20260506015034 48 7 0.0 0.0 0.00 0.54 0.54 1 1012.0
20260506014506 48 7 0.0 0.0 0.00 0.54 0.54 1 1011.9
20260506014047 48 7 0.0 0.0 0.00 0.54 0.54 1 1012.0
20260506013523 48 7 0.0 0.0 0.00 0.54 0.54 1 1012.0
20260506013104 49 7 0.0 0.0 0.00 0.54 0.54 1 1012.0
20260506012540 49 7 0.0 0.0 0.00 0.54 0.54 1 1011.9
20260506012015 49 7 0.0 0.0 0.00 0.54 0.54 1 1011.7
20260506011617 49 7 0.0 0.0 0.00 0.54 0.54 1 1011.7
20260506011031 49 7 0.0 0.0 0.00 0.54 0.54 1 1011.7
20260506010508 49 7 0.0 0.0 0.00 0.54 0.54 1 1011.7
20260506010059 49 7 0.0 0.0 0.00 0.54 0.54 1 1011.4
20260506005526 49 7 0.0 0.0 0.00 0.54 0.54 1 1011.5
20260506005001 49 7 0.0 0.0 0.00 0.54 0.54 1 1011.7
20260506004601 49 7 0.0 0.0 0.00 0.54 0.54 1 1011.7
20260506004019 49 7 0.0 0.0 0.00 0.54 0.54 1 1011.8
20260506003559 49 7 0.0 0.0 0.00 0.54 0.54 1 1011.7
20260506003044 49 7 0.0 0.0 0.00 0.54 0.54 1 1011.3
20260506002511 49 7 0.0 0.0 0.00 0.54 0.54 1 1011.2
20260506002049 49 7 0.0 0.0 0.00 0.54 0.54 1 1011.2
20260506001524 49 7 0.0 0.0 0.00 0.54 0.54 1 1011.2
20260506001105 49 7 0.0 0.0 0.00 0.54 0.54 1 1011.2
20260506000541 49 7 0.0 0.0 0.00 0.54 0.54 1 1011.0
20260506000017 49 7 0.0 1.0 0.00 0.54 0.54 1 1010.8
20260505235557 49 7 0.0 1.0 0.00 0.54 0.54 1 1010.8
20260505235033 49 6 0.0 0.0 0.00 0.54 0.54 1 1011.1
20260505234513 49 6 0.0 0.0 0.00 0.54 0.54 1 1011.1
20260505234051 49 6 0.0 0.0 0.00 0.54 0.54 1 1011.0
20260505233532 49 6 0.0 0.0 0.00 0.54 0.54 1 1011.3
20260505233007 49 6 0.0 0.0 0.00 0.54 0.54 1 1011.5
20260505232545 49 6 0.0 0.0 0.00 0.54 0.54 1 1011.4
20260505232020 49 6 0.0 0.0 0.00 0.54 0.54 1 1011.3
20260505231601 49 6 0.0 0.0 0.00 0.54 0.54 1 1011.3
20260505231036 49 6 0.0 0.0 0.00 0.54 0.54 1 1011.3
20260505230513 49 6 0.0 0.0 0.00 0.54 0.54 1 1011.3
20260505230052 49 6 0.0 0.0 0.00 0.54 0.54 1 1011.1
20260505225529 49 6 0.0 0.0 0.00 0.54 0.54 1 1011.2
20260505225007 49 6 0.0 1.0 0.00 0.54 0.54 1 1011.2
20260505224546 49 6 0.0 1.0 0.00 0.54 0.54 1 1011.2
20260505224019 49 6 0.0 1.0 0.00 0.54 0.54 1 1011.2
20260505223600 48 6 0.0 1.0 0.00 0.54 0.54 1 1011.1
20260505223036 49 6 0.0 1.0 0.00 0.54 0.54 1 1011.2
20260505222515 49 6 0.0 0.0 0.00 0.54 0.54 1 1011.3
20260505222054 48 6 0.0 2.0 0.00 0.54 0.54 1 1011.3
20260505221530 48 6 0.0 2.0 0.00 0.54 0.54 1 1011.1
20260505221005 48 6 0.0 2.0 0.00 0.54 0.54 1 1011.2
20260505220545 48 6 0.0 2.0 0.00 0.54 0.54 1 1011.2
20260505220029 48 31 0.0 1.0 0.00 0.54 0.54 1 1011.3
20260505215605 48 31 0.0 4.0 0.00 0.54 0.54 1 1011.3
20260505215039 48 20 2.0 4.0 0.00 0.54 0.54 1 1011.0
20260505214522 48 10 0.0 2.0 0.00 0.54 0.54 1 1011.0
20260505214057 48 354 0.0 1.0 0.00 0.54 0.54 1 1011.1
20260505213532 48 354 0.0 1.0 0.00 0.54 0.54 1 1011.2
20260505213008 48 354 0.0 0.0 0.00 0.54 0.54 1 1011.1
20260505212550 48 354 0.0 0.0 0.00 0.54 0.54 1 1011.2
20260505212025 47 354 0.0 0.0 0.00 0.54 0.54 1 1011.4
20260505211502 47 354 0.0 0.0 0.00 0.54 0.54 1 1011.3
20260505211043 47 354 0.0 1.0 0.00 0.54 0.54 1 1011.3
20260505210518 48 354 0.0 1.0 0.00 0.54 0.54 1 1011.3
20260505210058 47 354 0.0 0.0 0.00 0.54 0.54 1 1011.4
20260505205534 47 354 0.0 0.0 0.00 0.54 0.54 1 1011.4
20260505205011 47 354 0.0 0.0 0.01 0.54 0.54 1 1011.2
20260505204551 47 354 0.0 0.0 0.01 0.54 0.54 1 1011.4
20260505204028 47 354 0.0 0.0 0.01 0.54 0.54 1 1011.5
20260505203504 47 354 0.0 0.0 0.01 0.54 0.54 1 1011.4
20260505203045 47 354 0.0 0.0 0.01 0.54 0.54 1 1011.4
20260505202524 47 354 0.0 0.0 0.01 0.54 0.54 1 1011.4
20260505202103 47 354 0.0 0.0 0.01 0.54 0.54 1 1011.5
20260505201539 47 354 0.0 0.0 0.01 0.54 0.54 1 1011.3
20260505201014 47 354 0.0 1.0 0.01 0.54 0.54 1 1011.0
20260505200555 47 354 0.0 1.0 0.01 0.54 0.54 1 1010.9
20260505200032 47 354 0.0 0.0 0.01 0.54 0.54 1 1010.8
20260505195508 47 354 0.0 0.0 0.01 0.54 0.54 1 1011.0
20260505195049 47 354 0.0 0.0 0.00 0.53 0.53 1 1011.2
20260505194533 46 354 0.0 0.0 0.00 0.53 0.53 1 1011.3
20260505194003 46 354 0.0 0.0 0.00 0.53 0.53 1 1011.4
20260505193544 47 354 0.0 1.0 0.00 0.53 0.53 1 1011.5
20260505193033 46 354 0.0 1.0 0.00 0.53 0.53 1 1011.4
20260505192558 46 354 0.0 0.0 0.00 0.53 0.53 1 1011.2
20260505192034 46 354 0.0 0.0 0.00 0.53 0.53 1 1011.0
20260505191511 46 354 0.0 0.0 0.00 0.53 0.53 1 1011.1
20260505191052 46 354 0.0 0.0 0.00 0.53 0.53 1 1011.1
20260505190527 46 354 0.0 0.0 0.00 0.53 0.53 1 1011.2
20260505190004 46 354 0.0 0.0 0.00 0.53 0.53 1 1011.2
20260505185543 46 354 0.0 0.0 0.00 0.53 0.53 1 1011.2
20260505185019 46 354 0.0 0.0 0.00 0.53 0.53 1 1011.3
20260505184608 46 354 0.0 1.0 0.00 0.53 0.53 1 1011.4
20260505184036 46 354 0.0 1.0 0.00 0.53 0.53 1 1011.4
20260505183512 46 354 0.0 0.0 0.00 0.53 0.53 1 1011.5
20260505183052 46 354 0.0 1.0 0.00 0.53 0.53 1 1011.3
20260505182528 45 354 0.0 2.0 0.00 0.53 0.53 1 1011.7
20260505182005 45 354 0.0 2.0 0.00 0.53 0.53 1 1011.5
20260505181546 45 339 0.0 3.0 0.01 0.53 0.53 1 1011.7
20260505181023 45 339 0.0 3.0 0.01 0.53 0.53 1 1011.8
20260505180603 45 331 0.0 2.0 0.01 0.53 0.53 1 1011.9
20260505180051 45 354 0.0 4.0 0.01 0.53 0.53 1 1012.0
20260505175517 45 347 1.0 4.0 0.03 0.53 0.53 1 1012.0
20260505175100 45 347 1.0 2.0 0.03 0.53 0.53 1 1012.1
20260505174540 45 342 0.0 2.0 0.05 0.53 0.53 1 1011.8
20260505174011 46 283 0.0 1.0 0.06 0.53 0.53 1 1011.5
20260505173551 45 184 0.0 1.0 0.06 0.53 0.53 1 1011.1
20260505173027 45 179 0.0 2.0 0.06 0.53 0.53 1 1011.5
20260505172503 45 181 0.0 2.0 0.06 0.53 0.53 1 1011.8
20260505172043 46 167 0.0 1.0 0.06 0.53 0.53 1 1011.7
20260505171519 46 232 0.0 2.0 0.05 0.52 0.52 1 1011.6
20260505171103 46 212 0.0 1.0 0.06 0.52 0.52 1 1011.8
20260505170536 46 5 0.0 1.0 0.06 0.52 0.52 1 1011.9
20260505170023 46 5 0.0 4.0 0.06 0.51 0.51 1 1011.7
20260505165553 46 5 0.0 4.0 0.06 0.50 0.50 1 1011.6
20260505165029 46 310 0.0 4.0 0.05 0.49 0.49 1 1011.2
20260505164505 46 356 1.0 3.0 0.04 0.48 0.48 1 1011.8
20260505164045 46 1 0.0 3.0 0.03 0.47 0.47 1 1012.1
20260505163521 46 31 1.0 4.0 0.03 0.47 0.47 1 1011.9
20260505163101 46 17 1.0 4.0 0.03 0.47 0.47 1 1012.0
20260505162536 46 359 0.0 5.0 0.03 0.47 0.47 1 1012.0
20260505162013 46 8 1.0 5.0 0.03 0.47 0.47 1 1012.0
20260505161601 46 333 0.0 5.0 0.03 0.47 0.47 1 1011.8
20260505161032 46 9 2.0 5.0 0.02 0.46 0.46 1 1011.7
20260505160505 46 353 1.0 5.0 0.02 0.46 0.46 1 1011.7
20260505153042 47 327 3.0 7.0 0.03 0.44 0.44 1 1011.0
20260505152510 47 18 1.0 7.0 0.04 0.44 0.44 1 1011.2
20260505152049 47 359 2.0 5.0 0.05 0.44 0.44 1 1011.4
20260505151529 47 336 2.0 5.0 0.05 0.44 0.44 1 1011.2
20260505151001 48 352 0.0 4.0 0.05 0.44 0.44 1 1011.2
20260505150542 47 313 0.0 4.0 0.06 0.44 0.44 1 1011.2
20260505140518 46 353 0.0 6.0 0.03 0.38 0.38 1 1011.3
20260505124519 48 11 1.0 5.0 0.00 0.34 0.34 1 1008.6